#timestamp,LO_Frequency,Hit,StdDev 
1685354415.7,286046991.5,N
1685354435.5,286046989.5,N
1685354455.3,286046987.0,Y
1685354475.2,286046996.7,P
1685354495.9,286046996.7,N
1685354515.7,286047001.7,N
1685354535.6,286047002.0,N
1685354555.4,286047005.4,N
1685354575.3,286047007.9,N
1685354595.1,286047013.7,N
1685354596.0,286047013.7,N
1685354615.8,286047013.4,N
1685354635.7,286047010.6,N
1685354655.5,286047009.8,N
1685354675.3,286047005.7,N
1685354695.2,286047005.6,N
1685354715.0,286047002.6,N
1685354715.9,286047002.6,N
1685354735.8,286047000.5,N
1685354755.6,286047000.7,N
1685354775.4,286046998.8,N
1685354795.3,286046994.9,N
1685354815.1,286046993.5,N
1685354835.8,286046993.9,N
1685354855.7,286046993.9,N
1685354875.5,286046992.9,N
1685354895.4,286046992.4,N
1685354915.2,286046993.1,N
1685354935.0,286046989.4,N
1685354935.9,286046989.4,N
1685354955.8,286046989.2,N
1685354975.6,286046990.0,N
1685354995.5,286046987.0,N
1685355015.3,286046989.2,N
1685355035.1,286046983.7,N
1685355055.9,286046982.4,N
1685355075.7,286046979.5,N
1685355095.5,286046980.4,N
1685355115.4,286046976.1,N
1685355135.2,286046976.1,N
1685355155.1,286046971.6,N
1685355156.0,286046971.6,N
1685355175.8,286046971.9,N
1685355195.6,286046972.9,N
1685355215.5,286046974.8,N
1685355235.3,286046972.5,N
1685355255.1,286046980.2,N
1685355275.9,286046978.3,N
1685355295.7,286046978.3,N
1685355315.6,286046974.8,N
1685355335.4,286046974.5,Y
1685355355.2,286046992.3,P
1685355375.1,286046992.2,N
1685355376.0,286046992.2,N
1685355395.8,286046994.8,N
1685355415.7,286047001.2,N
1685355435.5,286046998.8,N
1685355455.3,286047000.4,N
1685355475.2,286047000.8,N
1685355495.0,286046999.0,N
1685355495.9,286046999.0,N
1685355515.7,286046995.6,N
1685355535.6,286046993.7,N
1685355555.4,286046995.1,N
1685355575.3,286046992.1,N
1685355595.1,286046990.6,N
1685355596.0,286046990.6,N
1685355615.8,286046992.0,N
1685355635.7,286046987.1,N
1685355655.5,286046985.5,Y
1685355675.3,286046995.8,P
1685355695.2,286046993.7,P
1685355715.0,286046990.1,P
1685355715.9,286046990.1,Y
1685355735.8,286046993.0,P
1685355755.6,286046992.6,P
1685355775.4,286046991.6,P
1685355795.3,286046988.1,Y
1685355815.1,286046992.9,P
1685355835.9,286046992.2,P
1685355855.7,286046992.3,P
1685355875.5,286046991.5,Y
1685355895.4,286046993.0,P
1685355915.2,286046992.7,P
1685355935.0,286046991.1,P
1685355935.9,286046991.1,Y
1685355955.8,286046995.9,P
1685355975.6,286046996.0,N
1685355995.5,286046998.7,N
1685356015.3,286046997.6,N
1685356035.1,286046992.1,Y
1685356055.9,286046992.0,P
1685356075.7,286046990.7,P
1685356095.5,286046993.3,N
1685356115.4,286046995.4,N
1685356135.2,286046999.0,N
1685356155.1,286046999.8,N
1685356156.0,286046999.8,N
1685356175.8,286047004.2,N
1685356195.6,286047004.0,N
1685356215.5,286047000.9,N
1685356235.3,286047001.5,N
1685356255.1,286047008.3,N
1685356275.9,286047012.2,N
1685356295.7,286047012.6,N
1685356315.6,286047014.6,N
1685356335.4,286047017.7,N
1685356355.2,286047020.0,N
1685356375.1,286047018.5,N
1685356376.0,286047018.5,N
1685356395.8,286047019.0,N
1685356415.6,286047017.7,N
1685356435.5,286047019.9,N
1685356455.3,286047019.6,N
1685356475.2,286047019.8,N
1685356495.9,286047020.5,N
1685356515.7,286047018.7,N
1685356535.6,286047020.4,N
1685356555.4,286047018.1,N
1685356575.2,286047009.8,N
1685356595.1,286047003.0,N
1685356596.0,286047003.0,N
1685356615.8,286047005.5,N
1685356635.7,286046999.1,N
1685356655.5,286046997.2,N
1685356675.3,286046990.1,N
1685356695.2,286046993.5,N
1685356715.0,286046999.5,N
1685356715.9,286046999.5,N
1685356735.7,286046998.0,N
1685356755.6,286046999.3,N
1685356775.4,286046994.2,N
1685356795.3,286046984.2,N
1685356815.1,286046981.1,N
1685356816.0,286046981.1,N
1685356835.8,286046981.6,N
1685356855.7,286046980.9,N
1685356875.5,286046982.5,N
1685356895.3,286046979.1,N
1685356915.2,286046980.2,N
1685356935.0,286046981.6,N
1685356935.9,286046981.6,N
1685356955.8,286046981.0,N
1685356975.6,286046980.9,N
1685356995.4,286046986.8,N
1685357015.3,286046982.9,N
1685357035.1,286046981.9,N
1685357055.8,286046984.7,N
1685357075.7,286046983.3,N
1685357095.5,286046983.9,N
1685357115.4,286046981.2,N
1685357135.2,286046976.9,N
1685357155.0,286046977.5,N
1685357155.9,286046977.5,Y
1685357175.8,286046986.9,P
1685357195.6,286046985.6,P
1685357215.5,286046986.6,P
1685357235.3,286046982.1,Y
1685357255.1,286046987.3,P
1685357275.9,286046988.4,P
1685357295.7,286046986.3,P
1685357315.5,286046980.5,Y
1685357335.4,286046990.5,P
1685357355.2,286046989.7,P
1685357375.1,286046987.5,P
1685357376.0,286046987.5,Y
1685357395.8,286046998.1,P
1685357415.6,286046997.8,N
1685357435.5,286046997.6,N
1685357455.3,286046992.4,N
1685357475.2,286046990.2,N
1685357495.9,286046993.7,N
1685357515.7,286046997.0,N
1685357535.6,286046997.7,N
1685357555.4,286046999.4,N
1685357575.3,286046996.5,N
1685357595.1,286046999.1,N
1685357596.0,286046999.1,N
1685357615.8,286047001.2,N
1685357635.7,286046999.6,N
1685357655.5,286046997.9,N
1685357675.4,286046998.6,N
1685357695.2,286046997.3,N
1685357715.0,286046994.2,N
1685357715.9,286046994.2,N
1685357735.8,286046996.6,N
1685357755.6,286047000.8,N
1685357775.5,286047005.6,N
1685357795.3,286047008.9,N
1685357815.1,286047010.5,N
1685357835.9,286047012.0,N
1685357855.7,286047015.6,N
1685357875.5,286047015.1,N
1685357895.4,286047011.5,N
1685357915.2,286047013.0,N
1685357935.0,286047010.2,N
1685357935.9,286047010.2,N
1685357955.8,286047013.8,N
1685357975.6,286047013.6,N
1685357995.5,286047012.9,N
